Location: Hardenberg
(52.5670°N, 6.6170°E)
Time: 12:53:33
(UTC+02:00)

ISS - Visible Passes

Search period start: 22 October 2019 00:00
Search period end: 31 October 2019 23:00
Orbit: 411 x 421 km, 51.6° (Epoch: 22 October)

Date Brightness Start Highest point End Pass type
(mag) Time Alt. Az. Time Alt. Az. Time Alt. Az.
25 Oct -1.3 07:36:54 10° SSW 07:39:34 22° SSE 07:42:14 10° E visible
26 Oct -0.9 06:49:04 10° S 06:51:09 15° SE 06:53:15 10° ESE visible
27 Oct -0.7 05:02:04 10° SSE 05:02:47 11° SE 05:03:29 10° SE visible
27 Oct -2.4 06:35:39 10° SW 06:38:48 38° SSE 06:41:58 10° E visible
28 Oct -2.0 05:47:33 11° SSW 05:50:18 28° SSE 05:53:15 10° E visible
29 Oct -1.7 05:01:15 20° SSE 05:01:49 21° SE 05:04:24 10° E visible
29 Oct -3.3 06:34:48 10° WSW 06:38:07 59° SSE 06:41:27 10° E visible
30 Oct -0.6 04:14:50 12° ESE 04:14:50 12° ESE 04:15:19 10° ESE visible
30 Oct -3.0 05:47:45 23° SW 05:49:32 47° SSE 05:52:47 10° E visible
31 Oct -2.5 05:01:14 35° SE 05:01:14 35° SE 05:04:05 10° E visible
31 Oct -3.6 06:34:08 10° W 06:37:29 75° S 06:40:51 10° E visible
